Date String (YYYY-MM-DD hh:mm:ss) UTC,Instrument flags,Ambient pressure (hPa),Sample flow (lpm),Bypass flow (lpm),Sample temperature (°C),Ambient temperature (°C),ASC tube jacket temperature (°C),LED temperature (°C),Box temperature (°C),Sample RH (%),Span deviation,Mass concentration (μg/m³),Mass concentration (μg/m³),Mass concentration (μg/m³)
DateTimeUTC,F1_M11,P_M11,Q1_M11,Q2_M11,T1_M11,T2_M11,T3_M11,T4_M11,T5_M11,U1_M11,ZSPAN_M11,X2_M11,X0_M11,X1_M11
2021-11-10 15:00:00,,0823.2,5.01,0.00,25.2,24.0,00.0,34.3,26.8,09.6,0000.0,0001.91,0005.29,0001.31
2021-11-10 15:01:00,,0823.2,5.00,0.00,25.2,24.0,00.0,34.3,26.7,09.6,0000.0,0001.90,0005.25,0001.32
2021-11-10 15:02:00,,0823.3,4.99,0.00,25.1,23.9,00.0,34.3,26.7,09.8,0000.0,0001.86,0005.09,0001.33
2021-11-10 15:03:00,,0823.2,5.00,0.00,25.1,23.9,00.0,34.3,26.8,09.8,0000.0,0001.85,0005.00,0001.37
2021-11-10 15:04:00,,0823.2,5.01,0.00,25.1,23.9,00.0,34.3,26.8,09.7,0000.0,0001.87,0005.26,0001.37
2021-11-10 15:05:00,,0823.3,4.99,0.00,25.1,23.9,00.0,34.3,26.7,09.6,0000.0,0001.93,0005.92,0001.36
2021-11-10 15:06:00,,0823.4,5.00,0.00,25.1,23.9,00.0,34.3,26.7,09.7,0000.0,0001.95,0006.05,0001.36
2021-11-10 15:07:00,,0823.3,5.00,0.00,25.1,23.8,00.0,34.3,26.7,09.7,0000.0,0001.90,0005.43,0001.35
2021-11-10 15:08:00,,0823.3,4.99,0.00,25.1,23.8,00.0,34.3,26.7,09.7,0000.0,0001.86,0004.52,0001.34
2021-11-10 15:09:00,,0823.3,5.00,0.00,25.1,23.9,00.0,34.3,26.8,09.8,0000.0,0001.88,0004.23,0001.34
2021-11-10 15:10:00,,0823.3,5.00,0.00,25.1,23.9,00.0,34.3,26.8,09.8,0000.0,0001.87,0004.18,0001.34
2021-11-10 15:11:00,,0823.4,5.00,0.00,25.1,23.9,00.0,34.3,26.8,09.8,0000.0,0001.91,0004.28,0001.33
2021-11-10 15:12:00,,0823.4,5.00,0.00,25.1,24.0,00.0,34.3,26.8,09.9,0000.0,0001.94,0004.55,0001.33
2021-11-10 15:13:00,,0823.3,5.00,0.00,25.1,23.9,00.0,34.2,26.7,09.8,0000.0,0001.95,0004.60,0001.32
2021-11-10 15:14:00,,0823.3,4.99,0.00,25.1,23.9,00.0,34.2,26.8,09.6,0000.0,0001.97,0005.74,0001.30
2021-11-10 15:15:00,,0823.2,5.01,0.00,25.1,23.9,00.0,34.2,26.7,09.6,0000.0,0001.99,0006.61,0001.30
2021-11-10 15:16:00,,0823.2,4.99,0.00,25.1,23.9,00.0,34.2,26.7,09.7,0000.0,0001.99,0005.96,0001.31
2021-11-10 15:17:00,,0823.2,5.01,0.00,25.1,23.9,00.0,34.2,26.7,09.9,0000.0,0002.03,0006.09,0001.33
2021-11-10 15:18:00,,0823.2,5.01,0.00,25.1,23.9,00.0,34.2,26.7,09.8,0000.0,0002.04,0007.76,0001.34
2021-11-10 15:19:00,,0823.2,4.99,0.00,25.1,23.9,00.0,34.2,26.7,09.6,0000.0,0002.13,0008.03,0001.34
2021-11-10 15:20:00,,0823.3,5.01,0.00,25.0,23.9,00.0,34.2,26.7,09.6,0000.0,0002.07,0008.02,0001.33
2021-11-10 15:21:00,,0823.4,5.00,0.00,25.1,23.9,00.0,34.2,26.8,09.4,0000.0,0002.07,0008.03,0001.32
2021-11-10 15:22:00,,0823.4,5.00,0.00,25.0,23.9,00.0,34.2,26.7,09.5,0000.0,0002.06,0008.06,0001.33
2021-11-10 15:23:00,,0823.3,5.01,0.00,25.0,23.9,00.0,34.2,26.7,09.6,0000.0,0002.04,0007.96,0001.33
2021-11-10 15:24:00,,0823.3,5.00,0.00,25.0,23.9,00.0,34.2,26.6,09.5,0000.0,0002.03,0007.97,0001.32
2021-11-10 15:25:00,,0823.4,5.00,0.00,25.0,23.9,00.0,34.2,26.6,09.4,0000.0,0002.04,0007.72,0001.33
2021-11-10 15:26:00,,0823.4,4.99,0.00,25.0,23.9,00.0,34.2,26.7,09.4,0000.0,0001.98,0006.37,0001.32
2021-11-10 15:27:00,,0823.4,5.00,0.00,25.0,23.9,00.0,34.2,26.6,09.5,0000.0,0001.93,0006.91,0001.29
2021-11-10 15:28:00,,0823.4,5.01,0.00,25.0,23.8,00.0,34.1,26.6,09.5,0000.0,0001.85,0007.19,0001.26
2021-11-10 15:29:00,,0823.6,4.99,0.00,25.0,23.8,00.0,34.1,26.6,09.5,0000.0,0001.85,0005.32,0001.25
2021-11-10 15:30:00,,0823.6,5.01,0.00,25.0,23.8,00.0,34.1,26.6,09.6,0000.0,0001.78,0004.70,0001.24
2021-11-10 15:31:00,,0823.6,5.01,0.00,25.0,23.8,00.0,34.1,26.6,09.7,0000.0,0001.70,0004.22,0001.24
2021-11-10 15:32:00,,0823.5,4.98,0.00,25.0,23.8,00.0,34.1,26.6,09.5,0000.0,0001.64,0004.00,0001.24
2021-11-10 15:33:00,,0823.4,5.00,0.00,24.9,23.8,00.0,34.1,26.5,09.5,0000.0,0001.62,0003.82,0001.23
2021-11-10 15:34:00,,0823.4,5.01,0.00,24.9,23.8,00.0,34.1,26.5,09.6,0000.0,0001.59,0003.70,0001.20
2021-11-10 15:35:00,,0823.5,4.99,0.00,24.9,23.8,00.0,34.1,26.6,09.5,0000.0,0001.59,0003.64,0001.19
2021-11-10 15:36:00,,0823.5,5.00,0.00,24.9,23.7,00.0,34.1,26.6,09.6,0000.0,0001.58,0003.59,0001.19
2021-11-10 15:37:00,,0823.5,5.01,0.00,24.9,23.8,00.0,34.1,26.6,09.6,0000.0,0001.59,0003.57,0001.19
2021-11-10 15:38:00,,0823.5,4.99,0.00,24.9,23.7,00.0,34.1,26.6,09.4,0000.0,0001.58,0002.73,0001.18
2021-11-10 15:39:00,,0823.6,5.00,0.00,24.9,23.7,00.0,34.1,26.6,09.3,0000.0,0001.59,0002.29,0001.18
2021-11-10 15:40:00,,0823.5,4.99,0.00,24.9,23.7,00.0,34.1,26.7,09.5,0000.0,0001.62,0002.39,0001.18
2021-11-10 15:41:00,,0823.5,5.00,0.00,24.9,23.8,00.0,34.1,26.6,09.5,0000.0,0001.64,0002.48,0001.18
2021-11-10 15:42:00,,0823.6,5.00,0.00,24.9,23.7,00.0,34.1,26.6,09.4,0000.0,0001.70,0003.07,0001.18
2021-11-10 15:43:00,,0823.6,4.99,0.00,24.9,23.7,00.0,34.1,26.6,09.4,0000.0,0001.77,0004.00,0001.18
2021-11-10 15:44:00,,0823.6,5.00,0.00,24.9,23.7,00.0,34.1,26.6,09.3,0000.0,0001.77,0004.26,0001.18
2021-11-10 15:45:00,,0823.6,4.99,0.00,25.0,23.7,00.0,34.1,26.6,09.3,0000.0,0001.77,0005.27,0001.19
2021-11-10 15:46:00,,0823.6,5.00,0.00,25.0,23.8,00.0,34.1,26.7,09.3,0000.0,0001.73,0005.32,0001.18
2021-11-10 15:47:00,,0823.7,5.01,0.00,25.0,23.8,00.0,34.1,26.7,09.4,0000.0,0001.70,0005.26,0001.18
2021-11-10 15:48:00,,0823.6,5.01,0.00,25.0,23.9,00.0,34.1,26.8,09.3,0000.0,0001.68,0005.21,0001.18
2021-11-10 15:49:00,,0823.7,5.00,0.00,25.0,24.0,00.0,34.1,26.8,09.2,0000.0,0001.67,0005.18,0001.19
2021-11-10 15:50:00,,0823.7,4.98,0.00,25.1,24.0,00.0,34.1,26.8,09.2,0000.0,0001.64,0005.11,0001.19
2021-11-10 15:51:00,,0823.7,5.01,0.00,25.1,24.0,00.0,34.1,26.8,09.3,0000.0,0001.59,0004.95,0001.18
2021-11-10 15:52:00,,0823.7,5.01,0.00,25.1,24.1,00.0,34.1,26.8,09.4,0000.0,0001.53,0004.85,0001.16
2021-11-10 15:53:00,,0823.7,5.00,0.00,25.1,24.1,00.0,34.1,26.9,09.3,0000.0,0001.51,0004.69,0001.15
2021-11-10 15:54:00,,0823.7,5.01,0.00,25.1,24.1,00.0,34.1,26.9,09.3,0000.0,0001.46,0003.64,0001.14
2021-11-10 15:55:00,,0823.7,4.99,0.00,25.1,24.2,00.0,34.1,26.9,09.1,0000.0,0001.42,0003.45,0001.14
2021-11-10 15:56:00,,0823.7,5.01,0.00,25.1,24.1,00.0,34.1,27.0,09.1,0000.0,0001.40,0002.45,0001.13
2021-11-10 15:57:00,,0823.7,5.00,0.00,25.2,24.2,00.0,34.1,27.0,09.1,0000.0,0001.40,0002.16,0001.13
2021-11-10 15:58:00,,0823.6,4.99,0.00,25.2,24.2,00.0,34.1,27.0,09.0,0000.0,0001.39,0002.59,0001.11
2021-11-10 15:59:00,,0823.6,5.00,0.00,25.2,24.2,00.0,34.1,27.0,08.9,0000.0,0001.37,0003.01,0001.11
